Location: Tel Aviv
(32.0670°N, 34.7670°E)
Time: 08:53:35
(UTC+02:00)

A-11 Canister half - Pass Details

Date: 13 December 2023
Orbit: 1526 x 1682 km, 47.3° (Epoch: 01 March)

Event Time Altitude Azimuth Distance (km) Brightness Sun altitude
Rises 19:19:57 0° 289° (WNW) 4,930 12.5 -33.6°
Reaches altitude 10° 19:23:38 10° 299° (WNW) 3,945 11.7 -34.3°
Maximum altitude 19:32:32 33° 0° (N) 2,544 10.0 -36.2°
Enters shadow 19:32:51 33° 4° (N) 2,545 9.9 -36.3°
